Weather History for Charles City, IA

Change the Weather History Date:

Friday, January 18, 2013

  Actual Average Record
Temperature  
Mean Temperature 34 °F -  
Max Temperature 46 °F 23 °F 49 °F (1981)
Min Temperature 23 °F 6 °F -31 °F (1967)
Degree Days  
Heating Degree Days 30    
Moisture  
Dew Point 27 °F    
Average Humidity 72    
Maximum Humidity 86    
Minimum Humidity 53    
Precipitation  
Precipitation 0.00 in - - ()
Sea Level Pressure  
Sea Level Pressure 29.96 in    
Wind  
Wind Speed 14 mph (SSW)    
Max Wind Speed 25 mph    
Max Gust Speed 34 mph    
Visibility 10 miles    
Events      
Averages and records for this station are not official NWS values.
T = Trace of Precipitation, MM = Missing Value Source: NWS Daily Summary

Daily Weather History Graph

Daily Weather History Graph

Search for Another Location

Airport:

Trip Planner

Search our weather history database for the weather conditions in past years. The results will help you decide how hot, cold, wet, or windy it might be!

Date:

Astronomy

Jan. 18, 2013 Rise Set
Actual Time 7:37 AM CST 5:05 PM CST
Civil Twilight 7:06 AM CST 5:36 PM CST
Nautical Twilight 6:31 AM CST 6:11 PM CST
Astronomical Twilight 5:57 AM CST 6:45 PM CST
Moon 11:02 AM CST (1/18) 12:08 AM CST (1/18)
Length of Visible Light 10h 30m
Length of Day
9h 27m
Waxing Crescent, 47% of the Moon is Illuminated
Jan 18
Waxing Crescent
Jan 18
First Quarter
Jan 26
Full
Feb 3
Last Quarter
Feb 10
New

Hourly Weather History & Observations

Time (CST) Temp. Windchill Dew Point Humidity Pressure Visibility Wind Dir Wind Speed Gust Speed Precip Events Conditions
12:15 AM 23.0 °F 14.7 °F 19.4 °F 86% 30.31 in 10.0 mi SE 6.9 mph - N/A   Overcast
12:35 AM 23.0 °F 13.9 °F 19.4 °F 86% 30.30 in 10.0 mi SE 8.1 mph - N/A   Overcast
12:55 AM 23.0 °F 13.9 °F 19.4 °F 86% 30.29 in 10.0 mi SE 8.1 mph - N/A   Overcast
1:15 AM 23.0 °F 13.9 °F 19.4 °F 86% 30.29 in 10.0 mi SE 8.1 mph - N/A   Overcast
1:35 AM 23.0 °F 13.9 °F 19.4 °F 86% 30.28 in 10.0 mi SE 8.1 mph - N/A   Overcast
1:55 AM 24.8 °F 15.3 °F 19.4 °F 80% 30.28 in 10.0 mi SE 9.2 mph - N/A   Overcast
2:15 AM 24.8 °F 14.6 °F 19.4 °F 80% 30.27 in 10.0 mi SE 10.4 mph - N/A   Overcast
2:35 AM 24.8 °F 14.0 °F 19.4 °F 80% 30.25 in 10.0 mi SE 11.5 mph - N/A   Overcast
2:55 AM 24.8 °F 13.4 °F 19.4 °F 80% 30.24 in 10.0 mi SE 12.7 mph - N/A   Overcast
3:15 AM 24.8 °F 12.9 °F 19.4 °F 80% 30.22 in 10.0 mi SSE 13.8 mph - N/A   Overcast
3:35 AM 24.8 °F 14.0 °F 19.4 °F 80% 30.21 in 10.0 mi SSE 11.5 mph - N/A   Mostly Cloudy
3:55 AM 26.6 °F 14.7 °F 19.4 °F 74% 30.19 in 10.0 mi SSE 15.0 mph - N/A   Partly Cloudy
4:15 AM 26.6 °F 13.8 °F 19.4 °F 74% 30.17 in 10.0 mi SSE 17.3 mph - N/A   Scattered Clouds
4:55 AM 26.6 °F 14.3 °F 21.2 °F 80% 30.14 in 10.0 mi SSE 16.1 mph - N/A   Overcast
5:15 AM 26.6 °F 14.3 °F 21.2 °F 80% 30.12 in 10.0 mi SSE 16.1 mph - N/A   Partly Cloudy
5:35 AM 26.6 °F 14.3 °F 21.2 °F 80% 30.11 in 10.0 mi South 16.1 mph - N/A   Clear
5:55 AM 28.4 °F 15.8 °F 21.2 °F 74% 30.09 in 10.0 mi South 18.4 mph - N/A   Clear
6:15 AM 28.4 °F 16.2 °F 21.2 °F 74% 30.08 in 10.0 mi South 17.3 mph 24.2 mph N/A   Clear
6:35 AM 28.4 °F 15.4 °F 21.2 °F 74% 30.06 in 10.0 mi South 19.6 mph - N/A   Clear
6:55 AM 28.4 °F 15.8 °F 23.0 °F 80% 30.05 in 10.0 mi South 18.4 mph - N/A   Clear
7:15 AM 28.4 °F 16.2 °F 23.0 °F 80% 30.03 in 10.0 mi South 17.3 mph - N/A   Clear
7:35 AM 28.4 °F 16.2 °F 23.0 °F 80% 30.02 in 10.0 mi South 17.3 mph 24.2 mph N/A   Clear
7:55 AM 28.4 °F 15.4 °F 24.8 °F 86% 30.01 in 10.0 mi South 19.6 mph - N/A   Clear
8:15 AM 30.2 °F 17.8 °F 24.8 °F 80% 30.00 in 10.0 mi South 19.6 mph - N/A   Clear
8:35 AM 32.0 °F 20.5 °F 26.6 °F 80% 29.99 in 10.0 mi South 18.4 mph - N/A   Clear
8:55 AM 32.0 °F 20.8 °F 26.6 °F 80% 29.99 in 10.0 mi South 17.3 mph - N/A   Clear
9:15 AM 33.8 °F 22.8 °F 26.6 °F 75% 29.99 in 10.0 mi South 18.4 mph 24.2 mph N/A   Clear
9:35 AM 33.8 °F 23.2 °F 26.6 °F 75% 29.98 in 10.0 mi South 17.3 mph 25.3 mph N/A   Clear
9:55 AM 35.6 °F 25.2 °F 28.4 °F 75% 29.97 in 10.0 mi South 18.4 mph - N/A   Clear
10:15 AM 39.2 °F 30.5 °F 28.4 °F 65% 29.97 in 10.0 mi SSW 16.1 mph 23.0 mph N/A   Clear
10:35 AM 39.2 °F 30.5 °F 28.4 °F 65% 29.95 in 10.0 mi SSW 16.1 mph - N/A   Clear
10:55 AM 41.0 °F 31.9 °F 28.4 °F 61% 29.93 in 10.0 mi SSW 19.6 mph 26.5 mph N/A   Clear
11:15 AM 42.8 °F 34.0 °F 28.4 °F 57% 29.92 in 10.0 mi SSW 20.7 mph 29.9 mph N/A   Clear
11:35 AM 42.8 °F 33.8 °F 30.2 °F 61% 29.90 in 10.0 mi SSW 21.9 mph 33.4 mph N/A   Clear
11:55 AM 42.8 °F 35.1 °F 30.2 °F 61% 29.89 in 10.0 mi SSW 16.1 mph 31.1 mph N/A   Clear
12:15 PM 44.6 °F 36.4 °F 30.2 °F 57% 29.86 in 10.0 mi SW 20.7 mph 31.1 mph N/A   Clear
12:35 PM 44.6 °F 37.4 °F 30.2 °F 57% 29.85 in 10.0 mi SW 16.1 mph 25.3 mph N/A   Clear
12:55 PM 46.4 °F 38.1 °F 30.2 °F 53% 29.83 in 10.0 mi SSW 24.2 mph 34.5 mph N/A   Clear
1:15 PM 46.4 °F 39.5 °F 32.0 °F 57% 29.83 in 10.0 mi SW 17.3 mph 29.9 mph N/A   Clear
1:35 PM 46.4 °F 38.7 °F 32.0 °F 57% 29.83 in 10.0 mi SW 20.7 mph 27.6 mph N/A   Clear
1:55 PM 46.4 °F 37.9 °F 32.0 °F 57% 29.82 in 10.0 mi SW 25.3 mph 32.2 mph N/A   Clear
2:15 PM 46.4 °F 38.1 °F 32.0 °F 57% 29.82 in 10.0 mi SW 24.2 mph - N/A   Clear
2:35 PM 46.4 °F 38.3 °F 32.0 °F 57% 29.82 in 10.0 mi SW 23.0 mph 28.8 mph N/A   Clear
2:55 PM 46.4 °F 38.5 °F 32.0 °F 57% 29.82 in 10.0 mi WSW 21.9 mph - N/A   Clear
3:15 PM 46.4 °F 39.5 °F 32.0 °F 57% 29.81 in 10.0 mi SW 17.3 mph 28.8 mph N/A   Clear
3:35 PM 46.4 °F 39.0 °F 32.0 °F 57% 29.80 in 10.0 mi SW 19.6 mph 26.5 mph N/A   Clear
3:55 PM 46.4 °F 39.5 °F 32.0 °F 57% 29.80 in 10.0 mi SW 17.3 mph 26.5 mph N/A   Clear
4:15 PM 46.4 °F 39.5 °F 32.0 °F 57% 29.80 in 10.0 mi WSW 17.3 mph 24.2 mph N/A   Clear
4:35 PM 44.6 °F 38.1 °F 32.0 °F 61% 29.81 in 10.0 mi WSW 13.8 mph - N/A   Clear
4:55 PM 44.6 °F 38.4 °F 32.0 °F 61% 29.81 in 10.0 mi WSW 12.7 mph - N/A   Clear
5:15 PM 42.8 °F 36.2 °F 32.0 °F 66% 29.82 in 10.0 mi WSW 12.7 mph - N/A   Clear
5:35 PM 42.8 °F 35.8 °F 32.0 °F 66% 29.83 in 10.0 mi WSW 13.8 mph - N/A   Clear
5:55 PM 41.0 °F 34.3 °F 32.0 °F 70% 29.84 in 10.0 mi WSW 11.5 mph - N/A   Clear
6:15 PM 41.0 °F 34.7 °F 32.0 °F 70% 29.84 in 10.0 mi WSW 10.4 mph - N/A   Clear
6:35 PM 39.2 °F 33.0 °F 32.0 °F 75% 29.84 in 10.0 mi WSW 9.2 mph - N/A   Clear
6:55 PM 39.2 °F 32.0 °F 32.0 °F 75% 29.84 in 10.0 mi WSW 11.5 mph - N/A   Clear
7:15 PM 39.2 °F 31.6 °F 30.2 °F 70% 29.84 in 10.0 mi WSW 12.7 mph - N/A   Clear
7:35 PM 39.2 °F 30.8 °F 30.2 °F 70% 29.84 in 10.0 mi WSW 15.0 mph - N/A   Clear
7:55 PM 39.2 °F 31.2 °F 30.2 °F 70% 29.85 in 10.0 mi WSW 13.8 mph - N/A   Clear
8:15 PM 39.2 °F 31.6 °F 30.2 °F 70% 29.84 in 10.0 mi SW 12.7 mph - N/A   Clear
8:35 PM 39.2 °F 30.8 °F 30.2 °F 70% 29.84 in 10.0 mi WSW 15.0 mph - N/A   Clear
8:55 PM 39.2 °F 32.0 °F 30.2 °F 70% 29.84 in 10.0 mi WSW 11.5 mph - N/A   Clear
9:15 PM 37.4 °F 29.8 °F 30.2 °F 75% 29.84 in 10.0 mi WSW 11.5 mph - N/A   Clear
9:35 PM 37.4 °F 29.8 °F 30.2 °F 75% 29.84 in 10.0 mi WSW 11.5 mph 17.3 mph N/A   Clear
9:55 PM 37.4 °F 28.9 °F 30.2 °F 75% 29.85 in 10.0 mi WSW 13.8 mph - N/A   Clear
10:15 PM 37.4 °F 29.8 °F 30.2 °F 75% 29.85 in 10.0 mi WSW 11.5 mph 18.4 mph N/A   Clear
10:35 PM 37.4 °F 30.8 °F 30.2 °F 75% 29.84 in 10.0 mi WSW 9.2 mph - N/A   Partly Cloudy
10:55 PM 35.6 °F 28.0 °F 30.2 °F 81% 29.84 in 10.0 mi West 10.4 mph - N/A   Partly Cloudy
11:15 PM 35.6 °F 28.6 °F 30.2 °F 81% 29.85 in 10.0 mi WSW 9.2 mph - N/A   Partly Cloudy
11:35 PM 35.6 °F 28.6 °F 30.2 °F 81% 29.83 in 10.0 mi WSW 9.2 mph - N/A   Clear
11:55 PM 35.6 °F 29.2 °F 30.2 °F 81% 29.83 in 10.0 mi WSW 8.1 mph - N/A   Clear